Selinsgrove, PA

4:01 AM EST on February 14, 2016 (GMT -0500)
Penn Valley

Weather History for KSEG - August, 2013

Change the Weather History Date:

Friday, August 30, 2013

  Actual Average (KIPT) Record (KIPT)
Temperature  
Mean Temperature 76 °F 69 °F  
Max Temperature 87 °F 79 °F 98 °F (1953)
Min Temperature 64 °F 59 °F 38 °F (1965)
Degree Days  
Heating Degree Days 0 1  
Month to date heating degree days 6  
Since 1 June heating degree days 47  
Since 1 July heating degree days 10  
Cooling Degree Days 10 5  
Month to date cooling degree days 197  
Year to date cooling degree days 630  
Since 1 June cooling degree days 587  
Growing Degree Days 26 (Base 50)    
Moisture  
Dew Point 67 °F    
Average Humidity 87    
Maximum Humidity 100    
Minimum Humidity 58    
Precipitation  
Precipitation 0.01 in 0.13 in 1.50 in (1985)
Month to date precipitation 3.74  
Year to date precipitation 26.91  
Sea Level Pressure  
Sea Level Pressure 29.97 in    
Wind  
Wind Speed 1 mph (SSE)    
Max Wind Speed 8 mph    
Max Gust Speed -    
Visibility 4 miles    
Events Fog    
T = Trace of Precipitation, MM = Missing Value Source: NWS Daily Summary

Daily Weather History Graph

Daily Weather History Graph

Search for Another Location

Airport or City:

Trip Planner

Search our weather history database for the weather conditions in past years. The results will help you decide how hot, cold, wet, or windy it might be!

Date:

Astronomy

Aug. 30, 2013 Rise Set
Actual Time 6:32 AM EDT 7:42 PM EDT
Civil Twilight 6:04 AM EDT 8:10 PM EDT
Nautical Twilight 5:30 AM EDT 8:44 PM EDT
Astronomical Twilight 4:55 AM EDT 9:19 PM EDT
Moon 1:08 AM EDT (8/30) 3:57 PM EDT (8/30)
Length of Visible Light 14h 06m
Length of Day
13h 10m
Waning Crescent, 29% of the Moon is Illuminated
Aug 30
Waning Crescent
Sep 5
New
Sep 12
First Quarter
Sep 19
Full
Sep 26
Last Quarter

Hourly Weather History & Observations

Time (EDT) Temp. Heat Index Dew Point Humidity Pressure Visibility Wind Dir Wind Speed Gust Speed Precip Events Conditions
12:53 AM 66.9 °F - 66.0 °F 97% 30.02 in 6.0 mi Calm Calm - N/A   Clear
1:38 AM 66.2 °F - 64.4 °F 94% 30.02 in 3.0 mi Calm Calm - N/A   Partly Cloudy
1:53 AM 64.9 °F - 64.0 °F 97% 30.01 in 6.0 mi Calm Calm - N/A   Partly Cloudy
2:22 AM 64.4 °F - 62.6 °F 94% 30.01 in 2.5 mi Calm Calm - N/A   Clear
2:30 AM 64.4 °F - 62.6 °F 94% 30.01 in 5.0 mi Calm Calm - N/A   Clear
2:37 AM 64.4 °F - 62.6 °F 94% 30.01 in 1.8 mi Calm Calm - N/A   Partly Cloudy
2:45 AM 64.4 °F - 62.6 °F 94% 30.01 in 1.0 mi Calm Calm - N/A   Mist
2:53 AM 64.0 °F - 63.0 °F 96% 30.00 in 1.0 mi Calm Calm - N/A   Mist
2:59 AM 64.4 °F - 62.6 °F 94% 30.01 in 2.0 mi Calm Calm - N/A   Scattered Clouds
3:08 AM 64.4 °F - 62.6 °F 94% 30.01 in 6.0 mi Calm Calm - N/A   Mostly Cloudy
3:15 AM 64.4 °F - 62.6 °F 94% 30.01 in 1.8 mi Calm Calm - N/A   Mostly Cloudy
3:32 AM 64.4 °F - 62.6 °F 94% 30.01 in 2.5 mi Calm Calm - N/A   Overcast
3:39 AM 66.2 °F - 64.4 °F 94% 30.01 in 3.0 mi Calm Calm - N/A   Overcast
3:42 AM 66.2 °F - 64.4 °F 94% 30.01 in 1.8 mi Calm Calm - N/A   Overcast
3:47 AM 64.4 °F - 64.4 °F 100% 30.01 in 0.8 mi Calm Calm - N/A   Overcast
3:53 AM 64.9 °F - 64.0 °F 97% 30.00 in 0.5 mi Calm Calm - N/A Fog Fog
4:53 AM 66.0 °F - 64.9 °F 96% 30.00 in 0.2 mi Calm Calm - N/A Fog Fog
5:53 AM 66.0 °F - 64.9 °F 96% 30.00 in 0.2 mi Calm Calm - 0.01 in Fog Fog
6:53 AM 66.0 °F - 64.9 °F 96% 30.01 in 0.2 mi Calm Calm - N/A Fog Fog
7:53 AM 66.0 °F - 64.9 °F 96% 30.01 in 0.2 mi Calm Calm - N/A Fog Fog
8:53 AM 68.0 °F - 66.9 °F 96% 30.02 in 1.0 mi Calm Calm - N/A   Overcast
9:22 AM 69.8 °F - 69.8 °F 100% 30.02 in 1.2 mi SSE 3.5 mph - N/A   Overcast
9:29 AM 71.6 °F - 69.8 °F 94% 30.02 in 1.8 mi Calm Calm - N/A   Overcast
9:40 AM 71.6 °F - 69.8 °F 94% 30.02 in 2.5 mi SSW 4.6 mph - N/A   Overcast
9:53 AM 73.0 °F - 69.1 °F 87% 30.01 in 3.0 mi Calm Calm - N/A   Overcast
10:19 AM 73.4 °F - 69.8 °F 88% 30.01 in 3.0 mi Calm Calm - N/A   Haze
10:53 AM 75.9 °F - 69.1 °F 79% 30.00 in 4.0 mi Variable 4.6 mph - N/A   Haze
11:36 AM 78.8 °F - 69.8 °F 74% 30.00 in 5.0 mi Calm Calm - N/A   Haze
11:53 AM 79.0 °F - 70.0 °F 74% 29.98 in 5.0 mi Calm Calm - N/A   Haze
12:15 PM 78.8 °F - 69.8 °F 74% 29.98 in 5.0 mi Calm Calm - N/A   Haze
12:53 PM 82.0 °F 86.3 °F 71.1 °F 69% 29.95 in 6.0 mi Calm Calm - N/A   Haze
1:53 PM 84.0 °F 89.6 °F 72.0 °F 67% 29.92 in 7.0 mi SSE 6.9 mph - N/A   Clear
2:53 PM 84.9 °F 90.7 °F 72.0 °F 65% 29.91 in 7.0 mi Variable 5.8 mph - N/A   Partly Cloudy
3:53 PM 87.1 °F 93.6 °F 72.0 °F 61% 29.88 in 7.0 mi SSE 8.1 mph - N/A   Clear
4:53 PM 86.0 °F 90.7 °F 70.0 °F 59% 29.87 in 7.0 mi Variable 4.6 mph - N/A   Clear
5:53 PM 84.0 °F 87.0 °F 68.0 °F 58% 29.86 in 8.0 mi SSE 8.1 mph - N/A   Clear
6:53 PM 82.0 °F 85.9 °F 70.0 °F 67% 29.83 in 7.0 mi South 3.5 mph - N/A   Clear
7:53 PM 77.0 °F - 70.0 °F 79% 29.83 in 7.0 mi Calm Calm - N/A   Clear
8:53 PM 75.0 °F - 69.1 °F 82% 29.86 in 8.0 mi Calm Calm - N/A   Clear
9:53 PM 72.0 °F - 69.1 °F 91% 29.85 in 7.0 mi South 3.5 mph - N/A   Clear
10:53 PM 71.1 °F - 68.0 °F 90% 29.85 in 6.0 mi Calm Calm - N/A   Clear
11:53 PM 70.0 °F - 68.0 °F 93% 29.86 in 7.0 mi Calm Calm - N/A   Clear